Погода в Череповеце

Погода в Череповеце : погода сейчас, прогноз погоды и архив. Всё, что Вы хотите узнать о погоде в Череповеце!

Хотите узнать прогноз погоды в Череповеце? Тогда Вам сюда: Погода в Череповеце

Поиск расширенной информации на нашем сайте:

Другие новости

Новости СМИ2

Главная страница сайта

Новости сайта

03.07.2017

Напоминаем, что на нашем специализированном сайте Метеоцентр.Азия вы можете получить высокодетализированные автоматические прогнозы погоды по пунктам России, СНГ и мира в авиационном формате (включающие направление и скорость ветра, видимость, явления погоды, количество и форму облачности, нижнюю и верхнюю границу облачности).


Погода в Череповеце - сегодня

Время (UTC), дата Ветер
(°,м/с) 
Видим.   Явления Облачность Т
(°С)
Тd
(°С)
f(%) Тe
(°С)
Pmin
(гПа)
dP
(гПа)
Po
(мм)
O2
(г/м3)
Тmin Tmax R s Состояние
почвы
15 10.10.18 280 (З) 5{11}  10 км  в посл. час ливневой дождь  9/8 300 м кучево-дожд., средняя 
[Cb calv|Ac trans]
+10.9 +9.5 91 +11  1012.6  749  288    +10.9  0.6     
21 10.10.18 270 (З) 10 км    3/3 600 м 
[Sc]
+6.5 +5.4 93 +6  1020.5  3.2  755  296           
00 11.10.18 260 (З) 10 км    3/3 600 м 
[Sc]
+4.5 +3.5 93 +4  1022.9  2.2  756  299           
03 11.10.18 260 (З) 10 км    ясно 
+1.8 +1.3 96 +3  1025.3  2.3  758  303  +1.3        влажная 
06 11.10.18 300 (СЗ) 10 км    3/3 300 м 
+4.8 +3.4 91 +4  1026.9  1.7  759  300  +1.1         
09 11.10.18 280 (З) 10 км    4/3 300 м верхняя 
[Sc|Ci fib]
+9.2 +4 70 +9  1028.2  1.6  760  296           
12 11.10.18 300 (СЗ) 10 км    3/3 600 м 
[Sc]
+11.2 +2.4 55 +11  1028.7  0.5  761  294           
18 11.10.18 тихо ()   10 км    3/0 верхняя 
[Ci fib]
+0.9 +0.4 96 +1  1031.5  1.1  762  306           
21 11.10.18 тихо ()   10 км    3/0 средняя, верхняя 
[Ac trans|Ci fib]
-0.9 -1.3 97 -1  1032.3  0.7  763  309           
00 12.10.18 240 (ЮЗ) 10 км    4/0 средняя, верхняя 
[Ac trans|Ci fib]
+4 +3.3 95 +5  1031.5  -0.4  763  302           
06 12.10.18 230 (ЮЗ) 10 км    9/0 средняя 
[Ac trans]
+7.3 +5.5 88 +7  1029.3  -1.2  761  298           
09 12.10.18 250 (З) 10 км    8/0 средняя 
[Ac trans]
+11 +6.8 75 +11  1027.9  -1.2  760  293           
12 12.10.18 300 (СЗ) 10 км    5/3 1000 м средняя, верхняя 
[Sc|Ac trans|Ci fib]
+13.4 +5 57 +13  1026.8  -1  759  291           
18 12.10.18 300 (СЗ) 10 км    10/10 270 м 
[Sc]
+7.8 +5.1 83 +7  1027.5  0.1  760  297           
21 12.10.18 280 (З) 10 км    10/10 150 м 
[Sc]
+6.6 +5 90 +8  1027.4  -0.2  760  298           
03 13.10.18 тихо ()   4100 м  слаб. морось  10/10 180 м 
[St]
+6 +5.5 97 +6  1026.3  -0.9  759  298  +5.9    0.3    влажная 
15 13.10.18 тихо ()   6000 м  дымка{морось}  10/10 120 м 
[Sc]
+8.8 +8.2 96 +9  1024.2  -1  757  294    +9.2  0.0     
18 13.10.18 160 (Ю) 0200 м  туман{морось}  ?/?  
+8.9 +8.9 100 +10  1024  -0.1  757  294           
21 13.10.18 250 (З) 0200 м  туман  ?/?  
+7.9 +7.9 100 +9  1024.1  757  295           
09 14.10.18 250 (З) 10 км    10/4 300 м средняя 
[St|Ac trans]
+13.1 +10.6 85 +15  1022.4  -0.6  756  289           
12 14.10.18 250 (З) 10 км    9/0 средняя, верхняя 
[Ac trans|Ci fib]
+17.4 +11.8 70 +21  1020.7  -1.4  755  284           
18 14.10.18 260 (З) 10 км    4/0 средняя, верхняя 
[Ac trans|Ci fib]
+13.8 +10.4 80 +15  1021.8  0.8  756  288           
21 14.10.18 260 (З) 10 км    6/0 средняя, верхняя 
[Ac trans|Ci fib]
+13.4 +9.7 78 +14  1022.3  0.5  756  289           
00 15.10.18 250 (З) 10 км    4/0 средняя, верхняя 
[Ac trans|Ci fib]
+10.2 +8.6 90 +10  1022.8  0.3  756  292           
12 15.10.18 230 (ЮЗ) 10 км    3/3 200 м 
[St]
+16.7 +8.8 60 +17  1022.5  -1.2  756  286           
Время (UTC), дата Ветер
(°,м/с) 
Видим.   Явления Облачность Т
(°С)
Тd
(°С)
f(%) Тe
(°С)
Pmin
(гПа)
dP
(гПа)
Po
(мм)
O2
(г/м3)
Тmin Tmax R s Состояние
почвы

Для получения пояснительной информации подведите курсор к названию столбца.

ПОГОДА в Череповеце - архив

Всё, что Вы хотите узнать о погоде в Череповеце - удобно и подробно!

Выберите нужную дату (начиная с 1 января 2015* года) и нажмите кнопку "Найти".
Будут отображены архивные сводки погоды по пункту Череповец, начиная с указанной даты.


Отображать данные в формате CSV (для использования в таблицах Excel)


Внимание! Наш архив погоды предназначен исключительно для личного некоммерческого использования в познавательных целях. Если Вам необходимы официальные справки о состоянии погоды (для производственных, юридических, коммерческих и т.п. целей), обращайтесь в органы Росгидромета.

*Примечание: данная дата относится к архиву по метеостанциям СССР (Россия, СНГ, Балтия).
Архив по метеостанциям Зарубежной Европы и Азии (кроме Китая) хранится 10 дней, по другим регионам земного шара (Китай, Африка, Америка, Австралия, Океания) - 1 день.

Череповец - район местоположения метеостанции


Название, широта, долгота, высота метеостанции:
Череповец 59.2°ш. 38°д. 114 м над ур. моря [Российская Федерация]

Дополнительная информация

В oтличие oт бoльшинства пoгoдных сайтoв мы публикуем пoдрoбную метеoинфoрмацию в детальнoм прoфессиoнальнoм фoрмате.

Характеристики температуры и влажнoсти вoздуха измеряются на высoте 2 м в тени вдали oт зданий и деревьев.
Скoрoсть ветра измеряется на высoте 10 м (на урoвне рoста челoвека скoрoсть ветра ниже в 1.5-2 раза). Если метеoстанция нахoдится в гoрoде или в лесу, тo скoрoсть ветра занижена на 2-4 м/с пo сравнению с oткрытым местoм. Скoрoсть ветра над акватoриями крупных рек и oзёр, а также на вершинах хoлмoв на 2-5 м/с выше, чем в oбычных услoвиях.
Атмoсфернoе давление в разных тoчках местнoсти мoжет значительнo oтличаться oт давления на метеoстанции, в зависимoсти oт услoвий рельефа (при пoдъёме на 10 м давление пoнижается примернo на 1 мм рт.ст.).